Regional Weather Roundup
Issued by NWS

Home | Current Version | Previous Version | Text Only | Print | Product List | Glossary On
Versions: 1 2 3 4 5 6 7 8 9 10 11 12 13 14 15 16 17 18 19 20 21 22 23 24 25 26 27 28 29 30 31 32 33 34 35 36 37 38 39 40 41 42 43 44 45 46 47 48 49 50
000
ASUS45 KBOU 300107
RWRCO

WEATHER ROUNDUP FOR COLORADO
NATIONAL WEATHER SERVICE DENVER/BOULDER CO
700 PM MDT SUN MAR 29 2015

NOTE: "FAIR" INDICATES FEW OR NO CLOUDS BELOW 12000 FEET WITH NO
SIGNIFICANT WEATHER AND/OR OBSTRUCTIONS TO VISIBILITY.

COZ001>005-013-030-031-300200-
...NORTHWEST COLORADO...

CITY           SKY/WX    TMP DP  RH WIND       PRES   REMARKS
CRAIG          PTCLDY    61  19  19 W7        30.18S
HAYDEN         PTCLDY    61  14  16 NW9       30.20R
MEEKER         CLEAR     64  16  15 NW8       30.18R
MOUNT WERNER   NOT AVBL
STEAMBOAT SPGS PTCLDY    57  15  19 NW8       30.21S
WALDEN         PTCLDY    50  10  20 SW10      30.25S
$$

COZ006>008-011-300200-
...WEST CENTRAL VALLEYS...

CITY           SKY/WX    TMP DP  RH WIND       PRES   REMARKS
GRAND JUNCTION CLEAR     69  10  10 NW7       30.11S
MONTROSE       CLEAR     69   8   9 NW13      30.17S
EAGLE          CLEAR     64  10  12 SW12      30.20R
RIFLE          CLEAR     69   9   9 W10       30.12S
DELTA          CLEAR     74   5   7 NW9G16    30.12S
NUCLA          CLEAR     68   1   7 W6        30.20S
$$

COZ017>023-064>068-300200-
...SOUTHWEST COLORADO...

CITY           SKY/WX    TMP DP  RH WIND       PRES   REMARKS
DURANGO        CLEAR     66   6   9 W17       30.18R
CORTEZ         CLEAR     70  14  11 W10       30.17R
PAGOSA SPRINGS CLOUDY    61  13  15 SE6       30.25R
TELLURIDE      CLEAR     56  -4   8 W9        30.35R
WOLF CREEK PAS MOCLDY    36  14  41 SW8       30.49F
$$

COZ009-010-012-014-032>034-037-058>063-300200-
...CENTRAL COLORADO...

CITY           SKY/WX    TMP DP  RH WIND       PRES   REMARKS
ASPEN          CLEAR     55  12  18 NW3       30.23S
BUENA VISTA    CLEAR     58   2  10 W6        30.25R
COPPER MTN     CLEAR     41 -13   9 W20G30    30.44S
BERTHOUD PASS  FAIR      32  27  80 MISG      30.45S
COTTONWOOD PAS CLEAR     52 -13   6 N7        30.35R
GUNNISON       CLEAR     61   5  11 NW10      30.28R
KREMMLING      CLEAR     59   3  10 N8        30.24R
LEADVILLE      CLEAR     47   5  18 W6        30.34S
SALIDA         CLEAR     58  23  25 SE14G22   30.29R
SUNLIGHT       CLEAR     45  10  24 CALM      30.44R
WILKERSON PASS CLEAR     43  -6  13 W9        30.43S
$$

COZ069>075-300200-
...SAN LUIS VALLEY/SANGRE DE CRISTO MOUNTAINS...

CITY           SKY/WX    TMP DP  RH WIND       PRES   REMARKS
ALAMOSA        CLOUDY    61  11  14 W14G23    30.21R
LA VETA PASS   MOCLDY    39  23  52 NE6       30.37R
SAGUACHE       NOT AVBL
$$

COZ035-036-038>040-300200-
...NORTHERN COLORADO FRONT RANGE...

CITY           SKY/WX    TMP DP  RH WIND       PRES   REMARKS
DENVER INTL AP PTCLDY    56  28  34 E12       30.15R
DMNS CITY PARK   N/A     61  26  25 E8        30.13S
AURORA         PTCLDY    59  29  31 SE12      30.16R
FRONT RANGE AP PTCLDY    59  28  31 E9        30.16S
ERIE MUNI ARPT PTCLDY    60  24  25 E8        30.14S
BOULDER MUN AP PTCLDY    61  28  29 NE3       30.14S
CENTENNIAL     PTCLDY    59  24  26 S13       30.15S
BROOMFIELD     PTCLDY    61  27  27 E9        30.16R
FORT COLLINS   PTCLDY    59  27  29 SE9       30.16R
LONGMONT       PTCLDY    62  28  27 E7        30.16S
$$

COZ041-046-047-076>085-087-088-300200-
...PIKES PEAK/PALMER DIVIDE AND SOUTHERN FOOTHILLS...

CITY           SKY/WX    TMP DP  RH WIND       PRES   REMARKS
COLO. SPRINGS  PTCLDY    56  20  24 S17       30.23R
A. F. ACADEMY  CLEAR     55  20  26 S16       30.22R
ELLICOTT       CLEAR    N/A N/A N/A S12       30.23R
FALCON         CLEAR     52  19  27 S13       30.26R
FORT CARSON    CLEAR     57  23  27 S10       30.21R
LIMON          CLEAR     54  22  28 SE7       30.19S
MONUMENT HILL  CLEAR     50  21  32 S15G23    30.22S
TRINIDAD       CLOUDY    59  23  25 E14       30.20F
$$

COZ042>045-048>051-090-091-300200-
...NORTHEAST COLORADO...

CITY           SKY/WX    TMP DP  RH WIND       PRES   REMARKS
GREELEY ARPT   PTCLDY    61  21  21 S9        30.13S
AKRON          CLEAR     55  22  27 SE6       30.17R
BURLINGTON     PTCLDY    57  18  21 E5        30.18S
WRAY           CLEAR     59  17  19 E5        30.16R
STERLING       CLEAR     59  25  27 CALM      30.14S
HOLYOKE        NOT AVBL
FORT MORGAN    CLEAR    N/A N/A N/A SE7       30.16S
$$

COZ086-089-092>099-300200-
...SOUTHEAST COLORADO...

CITY           SKY/WX    TMP DP  RH WIND       PRES   REMARKS
PUEBLO         CLEAR     63  22  20 SE10      30.18R
LA JUNTA       CLEAR     64  21  19 SE5       30.18R
LAMAR          CLEAR     63  19  18 E8        30.15R
SPRINGFIELD      N/A     57  19  22 E3        30.20R
$$


USA.gov is the U.S. government's official web portal to all federal, state and local government web resources and services.